﻿測定場所 (Monitoring sites),日付 (Measurement date),時間 (Measurement time),線量率 最大値 (max) μGy/h,線量率 最小値 (min) μGy/h,線量率 平均値 (average) μGy/h,
足立 (Adachi),2015-03-01,23:01～24:00,0.0466,0.0376,0.0418,
足立 (Adachi),2015-03-01,22:01～23:00,0.0524,0.0414,0.0467,
足立 (Adachi),2015-03-01,21:01～22:00,0.0611,0.0451,0.0531,
足立 (Adachi),2015-03-01,20:01～21:00,0.0726,0.0576,0.0654,
足立 (Adachi),2015-03-01,19:01～20:00,0.0714,0.0621,0.0665,
足立 (Adachi),2015-03-01,18:01～19:00,0.0674,0.0558,0.0627,
足立 (Adachi),2015-03-01,17:01～18:00,0.0657,0.0511,0.0585,
足立 (Adachi),2015-03-01,16:01～17:00,0.0575,0.0492,0.0539,
足立 (Adachi),2015-03-01,15:01～16:00,0.0559,0.0495,0.0525,
足立 (Adachi),2015-03-01,14:01～15:00,0.0543,0.0465,0.0504,
足立 (Adachi),2015-03-01,13:01～14:00,0.0516,0.0416,0.0471,
足立 (Adachi),2015-03-01,12:01～13:00,0.0483,0.0384,0.0428,
足立 (Adachi),2015-03-01,11:01～12:00,0.0437,0.0381,0.0412,
足立 (Adachi),2015-03-01,10:01～11:00,0.0444,0.0381,0.0414,
足立 (Adachi),2015-03-01,09:01～10:00,0.0449,0.0392,0.0414,
足立 (Adachi),2015-03-01,08:01～09:00,0.0441,0.0377,0.0413,
足立 (Adachi),2015-03-01,07:01～08:00,0.0437,0.0382,0.0409,
足立 (Adachi),2015-03-01,06:01～07:00,0.0438,0.0382,0.0415,
足立 (Adachi),2015-03-01,05:01～06:00,0.0453,0.0383,0.0414,
足立 (Adachi),2015-03-01,04:01～05:00,0.0445,0.0371,0.0411,
足立 (Adachi),2015-03-01,03:01～04:00,0.0435,0.0366,0.0405,
足立 (Adachi),2015-03-01,02:01～03:00,0.0436,0.0384,0.0409,
足立 (Adachi),2015-03-01,01:01～02:00,0.0444,0.0365,0.0404,
足立 (Adachi),2015-03-01,00:01～01:00,0.0446,0.0367,0.0405,
足立 (Adachi),2015-02-28,23:01～24:00,0.0425,0.0370,0.0402,
足立 (Adachi),2015-02-28,22:01～23:00,0.0430,0.0366,0.0399,
足立 (Adachi),2015-02-28,21:01～22:00,0.0429,0.0368,0.0399,
足立 (Adachi),2015-02-28,20:01～21:00,0.0430,0.0367,0.0398,
足立 (Adachi),2015-02-28,19:01～20:00,0.0439,0.0360,0.0397,
足立 (Adachi),2015-02-28,18:01～19:00,0.0429,0.0365,0.0398,
足立 (Adachi),2015-02-28,17:01～18:00,0.0418,0.0365,0.0390,
足立 (Adachi),2015-02-28,16:01～17:00,0.0427,0.0367,0.0394,
足立 (Adachi),2015-02-28,15:01～16:00,0.0424,0.0373,0.0394,
足立 (Adachi),2015-02-28,14:01～15:00,0.0423,0.0370,0.0399,
足立 (Adachi),2015-02-28,13:01～14:00,0.0435,0.0370,0.0400,
足立 (Adachi),2015-02-28,12:01～13:00,0.0425,0.0361,0.0397,
足立 (Adachi),2015-02-28,11:01～12:00,0.0429,0.0368,0.0396,
足立 (Adachi),2015-02-28,10:01～11:00,0.0428,0.0365,0.0399,
足立 (Adachi),2015-02-28,09:01～10:00,0.0437,0.0367,0.0396,
足立 (Adachi),2015-02-28,08:01～09:00,0.0426,0.0359,0.0387,
足立 (Adachi),2015-02-28,07:01～08:00,0.0422,0.0353,0.0384,
足立 (Adachi),2015-02-28,06:01～07:00,0.0420,0.0361,0.0387,
足立 (Adachi),2015-02-28,05:01～06:00,0.0424,0.0362,0.0392,
足立 (Adachi),2015-02-28,04:01～05:00,0.0442,0.0369,0.0394,
足立 (Adachi),2015-02-28,03:01～04:00,0.0422,0.0370,0.0395,
足立 (Adachi),2015-02-28,02:01～03:00,0.0433,0.0382,0.0406,
足立 (Adachi),2015-02-28,01:01～02:00,0.0438,0.0368,0.0405,
足立 (Adachi),2015-02-28,00:01～01:00,0.0438,0.0386,0.0409,
足立 (Adachi),2015-02-27,23:01～24:00,0.0439,0.0368,0.0412,
足立 (Adachi),2015-02-27,22:01～23:00,0.0431,0.0387,0.0411,
足立 (Adachi),2015-02-27,21:01～22:00,0.0444,0.0382,0.0409,
足立 (Adachi),2015-02-27,20:01～21:00,0.0435,0.0373,0.0407,
足立 (Adachi),2015-02-27,19:01～20:00,0.0434,0.0370,0.0408,
足立 (Adachi),2015-02-27,18:01～19:00,0.0433,0.0373,0.0405,
足立 (Adachi),2015-02-27,17:01～18:00,0.0441,0.0380,0.0408,
足立 (Adachi),2015-02-27,16:01～17:00,0.0430,0.0375,0.0405,
足立 (Adachi),2015-02-27,15:01～16:00,0.0445,0.0371,0.0404,
足立 (Adachi),2015-02-27,14:01～15:00,0.0433,0.0369,0.0396,
足立 (Adachi),2015-02-27,13:01～14:00,0.0428,0.0364,0.0393,
足立 (Adachi),2015-02-27,12:01～13:00,0.0425,0.0363,0.0391,
足立 (Adachi),2015-02-27,11:01～12:00,0.0417,0.0364,0.0396,
足立 (Adachi),2015-02-27,10:01～11:00,0.0433,0.0368,0.0399,
足立 (Adachi),2015-02-27,09:01～10:00,0.0433,0.0362,0.0397,
足立 (Adachi),2015-02-27,08:01～09:00,0.0423,0.0366,0.0402,
足立 (Adachi),2015-02-27,07:01～08:00,0.0436,0.0373,0.0400,
足立 (Adachi),2015-02-27,06:01～07:00,0.0432,0.0370,0.0402,
足立 (Adachi),2015-02-27,05:01～06:00,0.0438,0.0367,0.0404,
足立 (Adachi),2015-02-27,04:01～05:00,0.0434,0.0363,0.0395,
足立 (Adachi),2015-02-27,03:01～04:00,0.0438,0.0356,0.0392,
足立 (Adachi),2015-02-27,02:01～03:00,0.0432,0.0366,0.0397,
足立 (Adachi),2015-02-27,01:01～02:00,0.0426,0.0369,0.0393,
足立 (Adachi),2015-02-27,00:01～01:00,0.0436,0.0367,0.0396,
足立 (Adachi),2015-02-26,23:01～24:00,0.0434,0.0363,0.0394,
足立 (Adachi),2015-02-26,22:01～23:00,0.0426,0.0371,0.0399,
足立 (Adachi),2015-02-26,21:01～22:00,0.0479,0.0382,0.0432,
足立 (Adachi),2015-02-26,20:01～21:00,0.0569,0.0458,0.0515,
足立 (Adachi),2015-02-26,19:01～20:00,0.0615,0.0521,0.0563,
足立 (Adachi),2015-02-26,18:01～19:00,0.0582,0.0502,0.0539,
足立 (Adachi),2015-02-26,17:01～18:00,0.0634,0.0542,0.0587,
足立 (Adachi),2015-02-26,16:01～17:00,0.0640,0.0551,0.0600,
足立 (Adachi),2015-02-26,15:01～16:00,0.0644,0.0568,0.0602,
足立 (Adachi),2015-02-26,14:01～15:00,0.0632,0.0524,0.0567,
足立 (Adachi),2015-02-26,13:01～14:00,0.0576,0.0489,0.0528,
足立 (Adachi),2015-02-26,12:01～13:00,0.0542,0.0466,0.0496,
足立 (Adachi),2015-02-26,11:01～12:00,0.0478,0.0398,0.0435,
足立 (Adachi),2015-02-26,10:01～11:00,0.0474,0.0389,0.0425,
足立 (Adachi),2015-02-26,09:01～10:00,0.0457,0.0390,0.0422,
足立 (Adachi),2015-02-26,08:01～09:00,0.0458,0.0383,0.0414,
足立 (Adachi),2015-02-26,07:01～08:00,0.0431,0.0369,0.0402,
足立 (Adachi),2015-02-26,06:01～07:00,0.0430,0.0367,0.0400,
足立 (Adachi),2015-02-26,05:01～06:00,0.0452,0.0364,0.0400,
足立 (Adachi),2015-02-26,04:01～05:00,0.0428,0.0370,0.0400,
足立 (Adachi),2015-02-26,03:01～04:00,0.0436,0.0371,0.0400,
足立 (Adachi),2015-02-26,02:01～03:00,0.0436,0.0367,0.0400,
足立 (Adachi),2015-02-26,01:01～02:00,0.0442,0.0364,0.0403,
足立 (Adachi),2015-02-26,00:01～01:00,0.0428,0.0372,0.0404,
足立 (Adachi),2015-02-25,23:01～24:00,0.0445,0.0370,0.0399,
足立 (Adachi),2015-02-25,22:01～23:00,0.0436,0.0371,0.0404,
足立 (Adachi),2015-02-25,21:01～22:00,0.0434,0.0367,0.0402,
足立 (Adachi),2015-02-25,20:01～21:00,0.0422,0.0371,0.0396,
足立 (Adachi),2015-02-25,19:01～20:00,0.0427,0.0366,0.0403,
足立 (Adachi),2015-02-25,18:01～19:00,0.0431,0.0376,0.0401,
足立 (Adachi),2015-02-25,17:01～18:00,0.0431,0.0368,0.0400,
足立 (Adachi),2015-02-25,16:01～17:00,0.0446,0.0376,0.0401,
足立 (Adachi),2015-02-25,15:01～16:00,0.0425,0.0369,0.0400,
足立 (Adachi),2015-02-25,14:01～15:00,0.0429,0.0370,0.0399,
足立 (Adachi),2015-02-25,13:01～14:00,0.0443,0.0370,0.0400,
足立 (Adachi),2015-02-25,12:01～13:00,0.0433,0.0372,0.0401,
足立 (Adachi),2015-02-25,11:01～12:00,0.0441,0.0377,0.0401,
足立 (Adachi),2015-02-25,10:01～11:00,0.0442,0.0369,0.0402,
足立 (Adachi),2015-02-25,09:01～10:00,0.0429,0.0371,0.0402,
足立 (Adachi),2015-02-25,08:01～09:00,0.0427,0.0378,0.0399,
足立 (Adachi),2015-02-25,07:01～08:00,0.0425,0.0364,0.0397,
足立 (Adachi),2015-02-25,06:01～07:00,0.0423,0.0365,0.0394,
足立 (Adachi),2015-02-25,05:01～06:00,0.0434,0.0366,0.0398,
足立 (Adachi),2015-02-25,04:01～05:00,0.0425,0.0367,0.0397,
足立 (Adachi),2015-02-25,03:01～04:00,0.0423,0.0357,0.0389,
足立 (Adachi),2015-02-25,02:01～03:00,0.0427,0.0363,0.0396,
足立 (Adachi),2015-02-25,01:01～02:00,0.0431,0.0363,0.0396,
足立 (Adachi),2015-02-25,00:01～01:00,0.0432,0.0377,0.0401,
足立 (Adachi),2015-02-24,23:01～24:00,0.0431,0.0372,0.0399,
足立 (Adachi),2015-02-24,22:01～23:00,0.0428,0.0366,0.0398,
足立 (Adachi),2015-02-24,21:01～22:00,0.0434,0.0370,0.0402,
足立 (Adachi),2015-02-24,20:01～21:00,0.0432,0.0372,0.0400,
足立 (Adachi),2015-02-24,19:01～20:00,0.0423,0.0369,0.0399,
足立 (Adachi),2015-02-24,18:01～19:00,0.0421,0.0363,0.0395,
足立 (Adachi),2015-02-24,17:01～18:00,0.0429,0.0366,0.0396,
足立 (Adachi),2015-02-24,16:01～17:00,0.0437,0.0368,0.0396,
足立 (Adachi),2015-02-24,15:01～16:00,0.0429,0.0369,0.0398,
足立 (Adachi),2015-02-24,14:01～15:00,0.0390,0.0363,0.0373,
足立 (Adachi),2015-02-24,13:01～14:00,0.0438,0.0372,0.0403,
足立 (Adachi),2015-02-24,12:01～13:00,0.0436,0.0368,0.0400,
足立 (Adachi),2015-02-24,11:01～12:00,0.0441,0.0378,0.0402,
足立 (Adachi),2015-02-24,10:01～11:00,0.0436,0.0364,0.0401,
足立 (Adachi),2015-02-24,09:01～10:00,0.0423,0.0374,0.0399,
足立 (Adachi),2015-02-24,08:01～09:00,0.0433,0.0364,0.0397,
足立 (Adachi),2015-02-24,07:01～08:00,0.0432,0.0370,0.0397,
足立 (Adachi),2015-02-24,06:01～07:00,0.0425,0.0369,0.0390,
足立 (Adachi),2015-02-24,05:01～06:00,0.0433,0.0373,0.0399,
足立 (Adachi),2015-02-24,04:01～05:00,0.0443,0.0370,0.0402,
足立 (Adachi),2015-02-24,03:01～04:00,0.0434,0.0370,0.0404,
足立 (Adachi),2015-02-24,02:01～03:00,0.0437,0.0372,0.0401,
足立 (Adachi),2015-02-24,01:01～02:00,0.0428,0.0368,0.0402,
足立 (Adachi),2015-02-24,00:01～01:00,0.0436,0.0376,0.0401,
足立 (Adachi),2015-02-23,23:01～24:00,0.0436,0.0374,0.0403,
足立 (Adachi),2015-02-23,22:01～23:00,0.0427,0.0378,0.0405,
足立 (Adachi),2015-02-23,21:01～22:00,0.0451,0.0369,0.0411,
足立 (Adachi),2015-02-23,20:01～21:00,0.0501,0.0397,0.0445,
足立 (Adachi),2015-02-23,19:01～20:00,0.0660,0.0449,0.0543,
足立 (Adachi),2015-02-23,18:01～19:00,0.0672,0.0525,0.0611,
足立 (Adachi),2015-02-23,17:01～18:00,0.0559,0.0400,0.0493,
足立 (Adachi),2015-02-23,16:01～17:00,0.0439,0.0366,0.0401,
足立 (Adachi),2015-02-23,15:01～16:00,0.0438,0.0369,0.0402,
足立 (Adachi),2015-02-23,14:01～15:00,0.0427,0.0373,0.0402,
足立 (Adachi),2015-02-23,13:01～14:00,0.0426,0.0369,0.0401,
足立 (Adachi),2015-02-23,12:01～13:00,0.0431,0.0366,0.0404,
足立 (Adachi),2015-02-23,11:01～12:00,0.0435,0.0377,0.0405,
足立 (Adachi),2015-02-23,10:01～11:00,0.0438,0.0373,0.0406,
足立 (Adachi),2015-02-23,09:01～10:00,0.0453,0.0369,0.0406,
足立 (Adachi),2015-02-23,08:01～09:00,0.0430,0.0377,0.0405,
足立 (Adachi),2015-02-23,07:01～08:00,0.0437,0.0384,0.0410,
足立 (Adachi),2015-02-23,06:01～07:00,0.0468,0.0398,0.0425,
足立 (Adachi),2015-02-23,05:01～06:00,0.0495,0.0421,0.0457,
足立 (Adachi),2015-02-23,04:01～05:00,0.0478,0.0401,0.0446,
足立 (Adachi),2015-02-23,03:01～04:00,0.0458,0.0393,0.0423,
足立 (Adachi),2015-02-23,02:01～03:00,0.0448,0.0385,0.0415,
足立 (Adachi),2015-02-23,01:01～02:00,0.0457,0.0380,0.0417,
足立 (Adachi),2015-02-23,00:01～01:00,0.0463,0.0390,0.0421,
